Retour au catalogue

SPIP

ActifScienceSSO
NORAD 58298·PAYLOAD·🇧🇪 Belgium

Lancé Nov 11, 2023 depuis Vandenberg Space Force Base

Loading…

Prochains Passages (prochaines 24 heures)

TLE

FraisSource: Space-Track

Époque: Sep 14, 2026, 11:26 UTC

1 58298U 23174AU  26257.47701660  .00003521  00000-0  13034-3 0  9997
2 58298  97.3778 333.1422 0008030 222.2735 137.7887 15.28305055158411

Suivez SPIP en temps réel avec AllMySat

Download on the App Store